Last 24 Hours

OV-Red Dog 6200'

Hourly Data | America/Los_Angeles
as of 1/23/22 3:25 AM PST
Date & Time Temp (°F) RH (%) Dew Pt (°F) Wet Bulb (°F) Wind Dir (°) Wind Spd (mph) Wind Gust (mph) Latest Rain (In) New Snow (in) SnowDepth (in) Daily Min Temp (°F) Daily Max Temp (°F) Daily Rain (In)
1/23/22 - 0300 26.1 78 20.2 24.2 WSW | 242 0.9 3.0 0.00 0.1 46.8 26.0 34.0 0.00
1/23/22 - 0200 30.0 70 21.2 27.0 WSW | 253 1.6 5.6 0.00 0.1 46.5 29.5 34.0 0.00
1/23/22 - 0100 33.1 60 20.7 28.9 WNW | 299 2.9 7.3 0.00 0.1 46.6 30.9 34.0 0.00
1/23/22 - 0000 32.1 59 19.2 27.8 W | 270 2.3 8.2 0.00 0.1 46.7 26.6 39.8 0.00
1/22/22 - 2300 34.3 53 19.1 29.2 WSW | 252 5.0 17.2 0.00 0.1 46.7 26.6 39.8 0.00
1/22/22 - 2200 33.5 57 19.9 29.0 SW | 214 4.2 13.7 0.00 0.1 46.7 26.6 39.8 0.00
1/22/22 - 2100 31.9 60 19.6 27.8 SSW | 198 5.5 15.7 0.00 0.1 46.3 26.6 39.8 0.00
1/22/22 - 2000 32.0 59 19.3 27.8 WNW | 296 3.3 7.3 0.00 0.1 46.9 26.6 39.8 0.00
1/22/22 - 1900 31.0 63 19.7 27.3 W | 268 2.2 8.4 0.00 0.1 46.6 26.6 39.8 0.00
1/22/22 - 1800 31.4 64 20.7 27.8 SW | 233 3.5 14.5 0.00 0.1 46.7 26.6 39.8 0.00
1/22/22 - 1700 35.9 57 22.2 31.0 SSE | 165 6.0 15.4 0.00 0.1 46.6 26.6 39.8 0.00
1/22/22 - 1600 36.8 52 20.7 31.2 S | 183 6.4 14.4 0.00 - 46.4 26.6 39.8 0.00
1/22/22 - 1500 37.4 51 20.9 31.6 SSW | 192 4.6 14.8 0.00 0.1 46.6 26.6 39.8 0.00
1/22/22 - 1400 39.4 50 22.1 33.2 S | 176 6.2 17.3 0.00 - 46.7 26.6 39.4 0.00
1/22/22 - 1300 35.4 55 20.9 30.4 S | 182 6.5 17.2 0.00 - 46.4 26.6 36.6 0.00
1/22/22 - 1200 35.4 55 20.7 30.3 SSE | 163 7.5 19.6 0.00 0.1 46.3 26.6 35.8 0.00
1/22/22 - 1100 33.6 58 20.3 29.1 S | 173 6.6 16.4 0.00 0.1 46.7 26.6 34.3 0.00
1/22/22 - 1000 31.5 60 19.2 27.5 S | 175 7.4 16.0 0.00 0.1 46.8 26.6 32.0 0.00
1/22/22 - 0900 29.8 62 18.3 26.1 SSE | 163 6.7 14.5 0.00 0.1 46.7 26.6 30.2 0.00
1/22/22 - 0800 27.2 68 17.9 24.3 S | 180 5.8 13.7 0.00 0.1 46.4 26.6 29.8 0.00
1/22/22 - 0700 27.4 68 18.2 24.5 S | 180 5.4 11.7 0.00 0.1 46.7 26.7 29.8 0.00
1/22/22 - 0600 26.9 70 18.3 24.2 SSE | 156 6.9 18.0 0.00 0.1 46.8 26.9 29.8 0.00
1/22/22 - 0500 27.8 67 18.1 24.8 SSE | 163 9.5 19.2 0.00 0.1 46.7 27.4 29.8 0.00
1/22/22 - 0400 28.5 64 18.0 25.2 SSE | 166 8.8 16.5 0.00 0.1 46.6 28.2 29.8 0.00
1/22/22 - 0300 29.0 62 17.8 25.4 S | 182 7.1 13.7 0.00 0.1 46.6 28.2 29.8 0.00
Max 39.4 78 22.2 33.2 - 9.5 19.6 0.00 0.1 46.9 30.9 39.8 0.00
Avg 31.9 61 19.7 27.8 - 5.3 13.6 0.00 0.1 46.6 - - -
Min 26.1 50 17.8 24.2 - 0.9 3.0 0.00 0.1 46.3 26.0 29.8 0.00
Total - - - - - - - 0.00 - - - - -